Temp
71 72 69 65 56 53 48 50 52 53 52 53 57 55 55 52 53 47 65 68 68 66 66 68 71 71 72 72 72 72 72 73 73 73 73 73 73 73 72 73 73 73 74 75 74 73 73 72 72
69 73 68 61 50 45 49 51 53 53 55 56 57 55 53 52 62 61 64 68 68 66 65 66 69 71 71 71 71 71 72 73 73 73 73 73 73 73 73 72 72 72 74 74 73 73 72 71 71
72 72 61 55 50 46 48 50 53 54 56 56 54 56 55 56 62 63 65 68 68 64 64 66 69 70 71 71 71 71 70 71 71 72 72 71 72 72 72 72 72 71 73 72 72 72 71 70 70
68 66 60 49 48 54 51 51 55 54 55 59 55 52 57 64 65 64 66 66 66 65 64 67 69 70 70 70 70 70 70 70 70 70 70 70 70 71 71 71 71 71 71 71 71 71 70 69 69
65 60 51 47 50 56 53 57 56 54 53 53 55 50 53 60 64 65 66 67 65 62 63 65 69 69 70 69 69 69 69 68 69 69 69 69 69 69 70 70 71 70 70 70 70 70 69 68 68
57 57 48 45 51 54 53 58 58 54 55 54 54 52 55 62 62 63 67 66 63 61 62 63 64 67 68 68 68 68 68 68 68 68 67 67 67 68 68 69 69 69 69 69 68 68 68 67 67
57 53 48 48 52 54 57 60 57 55 55 53 57 53 58 61 64 63 65 66 65 62 60 59 60 62 64 65 65 66 66 66 66 66 66 65 65 65 66 66 69 69 68 68 67 67 66 66 65
59 55 49 50 51 53 56 56 58 58 53 59 59 51 55 62 64 65 65 64 63 60 58 57 58 58 58 58 63 64 64 64 64 64 63 62 61 62 62 62 66 68 68 68 66 66 65 64 63
61 50 47 49 52 52 55 56 58 59 57 55 56 56 60 63 64 62 61 61 60 59 57 56 57 56 57 57 59 60 62 62 61 60 60 58 55 55 57 60 63 65 66 66 66 64 63 61 59
55 50 50 53 53 52 55 55 57 56 55 53 54 57 61 62 62 59 59 58 55 54 55 56 55 56 56 61 56 55 57 55 55 55 55 55 54 54 57 55 59 60 61 63 64 63 60 56 51
55 52 54 54 55 55 55 55 57 56 53 56 55 56 59 59 59 60 61 57 56 56 56 57 57 56 55 56 54 53 53 53 53 54 54 54 54 53 53 53 53 53 56 56 60 58 55 52 50
51 55 57 54 55 56 54 57 53 55 54 57 59 59 60 58 58 61 59 56 56 56 57 58 57 56 55 55 54 54 53 53 53 53 55 53 52 52 52 51 52 52 53 54 55 56 56 54 50
51 52 55 55 55 55 58 53 53 51 55 58 59 58 58 57 57 58 59 58 57 56 57 57 57 57 57 55 54 54 53 53 53 54 55 54 52 51 52 51 51 51 52 53 53 53 53 51 50
51 52 53 54 53 55 53 53 55 52 55 57 57 55 56 57 57 57 57 57 58 58 59 58 58 58 57 55 55 55 54 54 55 56 57 58 54 52 52 51 51 51 51 53 52 51 51 50 49
52 48 51 51 51 51 53 50 51 52 55 55 55 55 55 57 58 57 58 59 60 60 63 61 59 59 58 57 56 55 55 58 58 58 59 59 58 57 54 54 52 51 51 52 51 51 50 49 50
47 48 44 49 51 51 53 44 50 50 52 54 53 53 54 56 61 62 61 60 61 63 63 62 63 61 60 60 60 58 59 59 59 59 59 59 59 58 56 55 51 51 51 50 50 48 48 47 47
45 41 44 45 50 50 49 46 49 50 49 50 51 52 53 55 59 61 63 62 64 64 63 62 61 61 61 61 60 59 59 59 59 59 59 59 59 58 56 53 52 54 53 49 51 51 49 49 50
41 42 45 44 47 48 46 47 51 52 50 50 50 51 52 53 55 55 60 63 64 64 63 62 62 62 61 59 58 57 57 57 58 58 58 59 57 57 54 51 50 51 50 51 52 51 51 48 46
48 46 44 47 49 47 46 49 50 52 45 46 47 49 50 52 51 53 55 62 61 61 61 61 60 60 59 57 56 56 55 56 56 56 57 57 56 55 54 53 53 53 52 52 52 51 49 46 45
48 45 42 45 48 47 45 46 51 50 49 46 47 47 49 49 49 50 51 53 55 57 59 60 60 59 57 55 57 57 56 55 55 55 56 56 55 53 52 50 49 49 48 49 49 48 46 44 45
47 44 40 42 44 45 44 42 45 49 49 46 46 47 48 49 49 48 49 48 49 49 52 52 53 53 53 55 55 53 52 51 51 50 50 50 50 50 50 49 48 48 48 46 47 46 45 47 48
42 48 47 42 42 37 45 35 42 46 43 44 47 45 47 48 49 48 47 46 47 47 50 50 50 50 51 52 51 51 52 51 51 48 48 47 48 48 48 47 47 46 46 45 46 48 46 48 47
45 48 46 45 42 40 37 35 41 41 40 42 45 45 46 47 47 46 46 46 46 46 45 46 47 47 48 48 49 48 46 46 46 45 44 44 44 45 45 45 44 44 44 44 44 45 44 46 47
47 43 41 41 39 32 37 37 38 35 44 46 44 47 46 44 44 45 46 45 44 44 44 45 45 44 45 45 45 44 44 43 43 42 41 41 41 42 42 43 42 42 42 42 43 43 43 43 45
43 41 31 30 30 31 35 35 42 44 44 47 49 46 44 44 44 43 43 43 44 44 43 44 44 43 43 43 43 44 43 42 42 40 39 39 38 38 39 40 40 39 40 41 41 41 41 42 43
40 40 34 28 26 28 33 32 38 44 48 48 49 47 45 44 45 43 43 43 43 43 42 42 42 42 43 43 42 42 42 41 40 39 38 38 37 38 39 39 38 39 39 39 39 39 40 40 41
37 35 38 33 28 27 29 33 41 40 42 43 44 45 45 45 44 44 43 42 42 42 43 44 43 43 43 42 41 41 40 40 39 39 38 37 37 40 40 38 37 38 38 38 38 38 38 38 39
39 41 32 32 25 22 28 29 34 37 39 40 41 44 45 45 44 44 44 43 43 44 44 44 44 44 42 41 41 41 40 40 39 38 37 37 37 38 37 37 37 38 38 38 36 37 37 37 38
35 34 34 35 32 27 24 30 39 40 41 41 43 46 44 44 44 44 43 43 43 43 42 44 43 42 41 40 39 40 40 39 37 37 37 37 37 37 37 37 37 37 37 37 36 36 36 35 36
39 35 35 32 29 29 29 30 39 41 41 43 43 44 44 45 44 43 43 43 41 42 42 42 42 41 41 41 40 39 39 38 37 36 36 37 37 37 36 36 35 36 36 36 35 35 36 35 34
MSLP
1012.17 1011.55 1012.92 1014.00 1015.02 1014.60 1014.03 1013.70 1013.52 1014.07 1014.60 1015.02 1015.29 1015.96 1016.72 1017.37 1017.54 1018.44 1017.98 1018.11 1018.10 1018.76 1019.13 1019.26 1019.33 1019.43 1019.45 1019.48 1019.41 1019.33 1019.25 1019.02 1018.94 1018.83 1018.73 1018.76 1018.62 1018.50 1018.55 1018.42 1018.34 1018.14 1017.91 1017.90 1017.92 1017.88 1017.72 1017.68 1017.61
1012.26 1012.22 1013.88 1014.21 1014.73 1014.49 1013.96 1013.68 1013.93 1014.31 1015.03 1015.29 1015.54 1016.26 1016.85 1017.61 1017.38 1017.75 1018.05 1018.32 1018.51 1018.87 1019.34 1019.54 1019.58 1019.62 1019.67 1019.63 1019.64 1019.55 1019.48 1019.37 1019.25 1019.17 1019.10 1019.04 1018.90 1018.74 1018.83 1018.83 1018.74 1018.54 1018.34 1018.28 1018.22 1018.20 1018.22 1018.19 1018.18
1011.95 1012.83 1014.45 1014.55 1014.69 1014.47 1013.97 1013.72 1014.18 1014.70 1015.17 1015.34 1016.11 1016.50 1017.02 1017.46 1017.54 1017.87 1018.06 1018.30 1018.70 1019.28 1019.49 1019.66 1019.73 1019.79 1019.86 1019.81 1019.86 1019.89 1019.93 1019.91 1019.78 1019.60 1019.54 1019.53 1019.31 1019.15 1019.16 1019.14 1019.04 1018.95 1018.84 1018.91 1018.74 1018.72 1018.69 1018.69 1018.72
1012.27 1013.91 1014.79 1014.61 1014.74 1014.11 1013.86 1013.81 1014.18 1014.93 1015.40 1015.54 1016.15 1017.00 1017.23 1017.27 1017.41 1017.77 1018.35 1018.57 1018.87 1019.43 1019.61 1019.73 1019.82 1019.91 1020.00 1020.10 1020.17 1020.23 1020.24 1020.19 1020.17 1020.14 1020.08 1019.96 1019.75 1019.55 1019.52 1019.45 1019.30 1019.35 1019.30 1019.25 1019.24 1019.26 1019.22 1019.11 1019.15
1012.92 1014.32 1015.00 1014.94 1014.50 1013.87 1013.76 1013.90 1014.37 1014.89 1015.42 1015.84 1016.12 1017.20 1017.60 1017.67 1017.65 1018.02 1018.41 1018.68 1019.04 1019.62 1019.76 1019.88 1019.94 1020.04 1020.18 1020.37 1020.47 1020.53 1020.59 1020.58 1020.57 1020.47 1020.38 1020.33 1020.21 1020.10 1019.88 1019.79 1019.72 1019.82 1019.85 1019.76 1019.71 1019.65 1019.62 1019.57 1019.57
1013.96 1015.22 1015.50 1015.06 1014.20 1014.04 1013.72 1013.93 1014.36 1014.87 1015.50 1016.00 1016.41 1017.08 1017.89 1017.87 1017.92 1018.37 1018.53 1018.94 1019.37 1019.59 1019.95 1020.12 1020.21 1020.35 1020.52 1020.65 1020.77 1020.83 1020.85 1020.84 1020.84 1020.83 1020.74 1020.69 1020.62 1020.49 1020.30 1020.16 1020.10 1020.11 1020.25 1020.26 1020.18 1020.13 1020.06 1019.96 1019.92
1013.86 1015.30 1015.06 1014.59 1014.00 1014.14 1013.79 1013.80 1014.29 1014.84 1015.41 1015.93 1016.17 1017.29 1017.94 1018.05 1018.30 1018.44 1018.79 1019.00 1019.44 1019.90 1020.19 1020.45 1020.57 1020.70 1020.81 1020.94 1021.05 1021.13 1021.12 1021.13 1021.18 1021.19 1021.12 1020.99 1020.93 1020.86 1020.81 1020.72 1020.43 1020.41 1020.44 1020.49 1020.48 1020.46 1020.45 1020.37 1020.25
1014.20 1015.31 1014.98 1014.87 1014.85 1014.41 1014.01 1014.02 1014.25 1014.63 1015.54 1015.77 1015.93 1016.87 1017.67 1017.80 1018.38 1018.81 1019.18 1019.54 1019.89 1020.24 1020.53 1020.81 1020.95 1021.06 1021.17 1021.26 1021.29 1021.37 1021.40 1021.42 1021.37 1021.30 1021.37 1021.38 1021.39 1021.24 1021.13 1021.06 1020.81 1020.67 1020.67 1020.61 1020.64 1020.72 1020.83 1020.80 1020.69
1014.24 1015.47 1015.33 1015.03 1015.14 1015.00 1014.32 1014.18 1014.42 1014.82 1015.39 1015.92 1016.20 1016.43 1016.47 1017.52 1018.39 1019.03 1019.56 1020.05 1020.37 1020.69 1020.85 1021.04 1021.15 1021.30 1021.41 1021.54 1021.54 1021.55 1021.54 1021.49 1021.53 1021.59 1021.56 1021.58 1021.62 1021.51 1021.41 1021.28 1021.17 1021.07 1020.95 1020.86 1020.82 1020.92 1020.99 1020.96 1020.91
1014.49 1015.43 1015.23 1015.46 1015.31 1015.21 1014.61 1014.39 1014.50 1015.08 1015.77 1016.24 1016.52 1016.74 1016.92 1017.72 1018.47 1019.08 1019.66 1020.17 1020.51 1020.81 1020.97 1021.09 1021.24 1021.38 1021.48 1021.48 1021.68 1021.68 1021.65 1021.74 1021.78 1021.83 1021.80 1021.84 1021.85 1021.87 1021.76 1021.52 1021.39 1021.33 1021.18 1021.10 1020.92 1021.04 1021.23 1021.28 1021.24
1014.78 1014.91 1015.45 1015.80 1015.65 1015.26 1014.78 1014.71 1014.85 1015.22 1015.94 1015.96 1016.25 1016.97 1017.46 1018.09 1018.64 1019.02 1019.56 1019.72 1019.98 1020.47 1020.86 1021.01 1021.14 1021.35 1021.53 1021.58 1021.75 1021.83 1021.90 1021.98 1022.10 1022.15 1022.17 1022.07 1022.00 1021.96 1021.90 1021.83 1021.71 1021.66 1021.48 1021.45 1021.29 1021.16 1021.37 1021.47 1021.43
1014.94 1014.98 1015.14 1015.72 1015.69 1015.26 1015.28 1015.05 1015.30 1015.58 1016.01 1016.03 1016.00 1016.65 1017.33 1018.04 1018.54 1018.73 1019.21 1019.86 1020.17 1020.40 1020.56 1020.78 1020.93 1021.21 1021.41 1021.59 1021.83 1021.93 1022.00 1022.12 1022.20 1022.20 1022.15 1022.16 1022.11 1022.10 1022.06 1022.09 1022.02 1021.98 1021.83 1021.70 1021.53 1021.41 1021.32 1021.34 1021.41
1015.08 1015.30 1015.39 1015.80 1015.95 1015.74 1015.32 1015.53 1015.64 1015.97 1016.05 1015.94 1016.40 1017.17 1017.63 1018.01 1018.41 1018.63 1018.83 1019.46 1019.98 1020.29 1020.28 1020.48 1020.72 1020.98 1021.22 1021.53 1021.78 1021.90 1021.91 1022.06 1022.20 1022.22 1022.11 1022.09 1022.09 1022.16 1022.15 1022.09 1022.07 1022.05 1021.84 1021.64 1021.49 1021.59 1021.55 1021.50 1021.36
1015.09 1015.23 1015.52 1015.90 1016.24 1016.28 1016.25 1015.97 1015.90 1016.44 1016.40 1016.69 1017.03 1017.48 1017.84 1018.03 1018.20 1018.71 1019.13 1019.48 1019.78 1019.87 1020.00 1020.17 1020.47 1020.67 1021.03 1021.41 1021.60 1021.79 1021.85 1021.92 1021.97 1021.93 1021.88 1021.88 1021.90 1022.01 1022.03 1021.99 1021.95 1021.94 1021.86 1021.71 1021.68 1021.63 1021.63 1021.53 1021.43
1015.36 1015.76 1016.28 1016.52 1016.77 1016.76 1016.74 1016.42 1016.40 1016.71 1016.87 1017.27 1017.61 1017.90 1018.10 1018.16 1018.35 1018.53 1018.82 1019.18 1019.27 1019.47 1019.69 1019.88 1020.26 1020.46 1020.70 1021.03 1021.44 1021.68 1021.71 1021.72 1021.76 1021.70 1021.72 1021.74 1021.69 1021.76 1021.80 1021.84 1021.92 1021.99 1021.95 1021.80 1021.70 1021.57 1021.50 1021.47 1021.21
1015.76 1016.02 1016.31 1016.77 1017.02 1017.17 1016.67 1016.91 1016.91 1017.12 1017.41 1017.45 1017.85 1018.15 1018.24 1018.29 1018.29 1018.28 1018.57 1018.84 1019.05 1019.14 1019.26 1019.52 1019.67 1020.00 1020.34 1020.76 1021.12 1021.40 1021.42 1021.45 1021.55 1021.69 1021.71 1021.77 1021.74 1021.70 1021.83 1021.94 1022.11 1021.98 1021.90 1021.88 1021.82 1021.74 1021.65 1021.52 1021.19
1015.38 1015.72 1016.31 1017.00 1017.06 1017.20 1017.36 1017.15 1017.06 1017.18 1017.64 1017.96 1018.12 1018.27 1018.39 1018.36 1018.28 1018.31 1018.44 1018.48 1018.55 1018.59 1018.82 1019.23 1019.70 1020.03 1020.35 1020.60 1020.91 1021.05 1021.23 1021.40 1021.47 1021.65 1021.71 1021.70 1021.74 1021.81 1021.93 1021.98 1021.93 1021.82 1021.78 1021.85 1021.72 1021.63 1021.56 1021.29 1020.95
1014.12 1015.37 1016.02 1016.59 1017.16 1016.99 1017.53 1017.13 1017.17 1017.22 1017.70 1018.18 1018.34 1018.45 1018.49 1018.37 1018.32 1018.37 1018.43 1018.35 1018.23 1018.52 1018.80 1019.23 1019.62 1019.97 1020.27 1020.67 1020.90 1021.13 1021.28 1021.43 1021.62 1021.77 1021.77 1021.76 1021.80 1021.82 1021.90 1021.98 1021.93 1021.87 1021.80 1021.63 1021.45 1021.42 1021.24 1021.07 1020.74
1013.79 1014.89 1015.64 1016.20 1016.72 1017.15 1017.36 1017.04 1016.84 1016.69 1017.51 1018.38 1018.65 1018.63 1018.43 1018.32 1018.46 1018.41 1018.36 1018.31 1018.44 1018.65 1018.95 1019.26 1019.77 1020.13 1020.39 1020.76 1021.11 1021.33 1021.57 1021.66 1021.65 1021.67 1021.69 1021.73 1021.68 1021.68 1021.73 1021.74 1021.71 1021.56 1021.73 1021.52 1021.47 1021.37 1021.20 1021.05 1020.84
1013.81 1014.58 1015.66 1016.54 1016.98 1017.40 1017.33 1017.01 1016.99 1017.21 1017.46 1018.06 1018.49 1018.72 1018.59 1018.67 1018.71 1018.88 1018.92 1018.90 1018.97 1019.26 1019.35 1019.60 1019.91 1020.24 1020.57 1020.82 1021.06 1021.25 1021.54 1021.79 1021.77 1021.70 1021.69 1021.73 1021.82 1021.80 1021.75 1021.78 1021.85 1021.68 1021.76 1021.61 1021.59 1021.54 1021.40 1021.26 1020.77
1013.69 1014.00 1015.28 1015.96 1017.15 1017.52 1017.33 1017.03 1016.90 1017.09 1017.52 1017.90 1018.29 1018.42 1018.59 1018.74 1019.03 1019.20 1019.40 1019.62 1019.76 1020.01 1020.19 1020.38 1020.51 1020.69 1020.93 1021.05 1021.19 1021.58 1021.63 1021.81 1022.02 1022.03 1022.15 1022.09 1021.97 1021.88 1022.00 1021.92 1021.82 1021.89 1021.82 1021.70 1021.62 1021.48 1021.44 1021.10 1020.62
1013.87 1014.22 1015.00 1015.89 1016.96 1017.60 1017.61 1016.97 1016.17 1016.63 1017.27 1017.72 1017.98 1018.35 1018.45 1018.77 1019.23 1019.52 1019.86 1020.23 1020.41 1020.57 1020.67 1020.79 1020.96 1021.14 1021.23 1021.21 1021.41 1021.67 1021.98 1022.31 1022.65 1022.84 1022.78 1022.48 1022.25 1022.21 1021.98 1021.98 1021.94 1021.86 1021.80 1021.65 1021.43 1021.21 1021.15 1020.95 1020.48
1014.38 1014.65 1015.36 1015.99 1016.62 1017.28 1017.89 1017.98 1015.77 1016.21 1016.80 1017.10 1017.24 1017.80 1018.12 1018.70 1019.34 1019.77 1020.16 1020.40 1020.77 1020.99 1021.16 1021.24 1021.37 1021.48 1021.57 1021.57 1021.63 1021.92 1022.43 1022.76 1022.94 1023.08 1023.04 1022.91 1022.80 1022.57 1022.43 1022.27 1022.12 1021.98 1021.83 1021.60 1021.50 1021.12 1020.91 1020.75 1020.47
1014.97 1015.60 1016.45 1016.91 1017.39 1017.60 1016.82 1017.14 1015.39 1015.73 1015.29 1015.44 1016.14 1016.63 1017.47 1018.46 1019.40 1020.20 1020.36 1020.69 1021.14 1021.31 1021.43 1021.58 1021.67 1021.96 1021.96 1021.94 1022.19 1022.38 1022.75 1023.05 1023.26 1023.32 1023.34 1023.13 1023.13 1022.73 1022.59 1022.35 1022.23 1022.04 1021.76 1021.51 1021.22 1021.02 1020.79 1020.52 1020.27
1015.66 1015.94 1017.23 1017.88 1018.15 1017.51 1017.26 1017.01 1014.48 1014.19 1014.01 1014.06 1014.78 1016.16 1017.24 1018.36 1019.31 1020.35 1020.46 1020.86 1021.18 1021.42 1021.64 1021.84 1021.91 1022.23 1022.30 1022.38 1022.63 1022.78 1022.97 1023.17 1023.41 1023.47 1023.57 1023.53 1023.40 1022.95 1022.64 1022.50 1022.21 1022.00 1021.74 1021.41 1021.10 1020.85 1020.47 1020.22 1019.93
1016.64 1016.30 1017.05 1017.34 1017.71 1017.76 1017.61 1015.78 1013.66 1013.01 1013.18 1013.68 1014.32 1015.52 1017.12 1018.31 1019.06 1019.83 1020.31 1020.68 1021.01 1021.44 1021.66 1021.80 1022.03 1022.27 1022.53 1022.67 1022.84 1022.95 1022.92 1023.04 1023.25 1023.42 1023.40 1023.40 1023.21 1022.95 1022.57 1022.47 1022.11 1021.69 1021.40 1021.18 1020.85 1020.61 1020.23 1019.91 1019.53
1017.14 1017.21 1017.80 1017.54 1018.03 1017.87 1016.53 1015.37 1013.84 1013.24 1013.55 1013.94 1014.70 1015.66 1016.72 1017.84 1018.80 1019.52 1020.28 1020.52 1020.91 1021.28 1021.47 1021.55 1021.81 1022.24 1022.38 1022.54 1022.80 1022.89 1022.95 1023.14 1023.33 1023.24 1023.30 1023.27 1022.98 1022.62 1022.40 1022.25 1021.91 1021.50 1021.13 1020.78 1020.41 1020.08 1019.64 1019.32 1018.94
1017.53 1017.90 1018.17 1018.09 1018.37 1017.91 1016.23 1015.46 1013.98 1013.57 1013.93 1014.33 1014.79 1015.28 1016.33 1017.36 1018.40 1019.23 1019.80 1020.33 1020.80 1020.99 1021.20 1021.52 1021.81 1022.03 1022.34 1022.49 1022.66 1022.89 1023.09 1023.16 1023.21 1023.26 1023.18 1022.98 1022.78 1022.58 1022.41 1022.02 1021.61 1021.19 1020.67 1020.29 1020.09 1019.72 1019.20 1018.80 1018.42
1018.30 1018.30 1018.40 1018.37 1018.13 1017.80 1016.81 1014.60 1013.61 1013.52 1013.27 1013.88 1014.65 1015.31 1015.96 1016.92 1017.90 1018.65 1019.49 1020.04 1020.34 1020.71 1021.05 1021.46 1021.83 1021.99 1022.21 1022.43 1022.64 1022.78 1022.93 1022.96 1023.17 1023.26 1023.12 1022.91 1022.70 1022.49 1022.19 1021.74 1021.33 1020.91 1020.45 1019.90 1019.40 1018.94 1018.44 1017.99 1017.46
1018.20 1018.45 1018.23 1018.11 1018.33 1017.76 1017.00 1014.42 1013.30 1013.20 1012.87 1013.31 1014.56 1015.41 1016.18 1016.77 1017.48 1018.24 1018.95 1019.61 1020.13 1020.49 1020.85 1021.31 1021.59 1021.78 1022.07 1022.36 1022.48 1022.70 1022.84 1022.94 1023.04 1023.14 1023.00 1022.76 1022.57 1022.09 1021.81 1021.39 1021.01 1020.45 1019.88 1019.32 1018.94 1018.44 1018.11 1017.70 1017.14
Wind_Speed
6 11 4 4 0 3 3 3 2 3 2 1 3 5 7 4 3 4 4 7 12 9 6 6 7 7 6 6 5 6 5 6 9 9 8 9 11 10 12 13 10 11 13 12 12 13 13 14 16
1 8 4 1 2 1 4 2 5 4 5 6 6 4 6 3 2 9 8 10 10 9 6 5 7 7 6 6 5 5 5 5 7 9 12 10 10 10 11 10 9 11 13 12 12 12 13 15 15
8 5 2 4 1 3 4 2 5 3 6 2 4 4 4 4 5 3 9 12 10 7 6 5 7 7 6 6 5 5 5 5 6 7 11 12 11 11 11 10 10 13 13 12 14 14 15 15 14
4 3 1 4 6 6 3 3 5 7 2 4 5 8 4 3 7 7 11 9 10 7 6 6 7 7 6 5 5 5 6 6 6 8 9 10 12 12 12 10 10 12 14 12 12 13 13 14 14
5 4 3 2 3 4 2 5 4 4 3 3 1 4 3 3 7 14 12 10 11 6 5 5 7 7 6 6 5 6 6 7 7 7 8 9 10 12 11 11 10 12 12 12 12 13 13 15 14
4 4 2 4 4 2 1 5 4 3 3 4 6 5 2 5 13 9 11 9 6 8 6 5 6 7 6 6 6 6 6 7 8 9 9 9 10 11 12 11 9 12 12 10 12 14 15 16 14
7 3 4 2 4 3 4 5 5 5 5 2 7 5 3 8 8 8 9 8 8 6 6 5 4 5 6 6 6 6 7 7 7 7 8 8 10 10 11 14 8 9 10 8 11 12 12 12 12
3 1 1 2 5 2 1 1 3 3 2 4 4 6 6 11 10 9 9 8 7 5 5 4 4 3 3 3 5 6 6 6 6 6 7 8 9 10 9 10 11 8 8 8 8 10 9 10 11
2 3 3 1 3 2 4 2 2 2 6 2 2 4 6 16 13 11 9 6 5 4 4 4 4 3 3 3 3 5 4 5 5 5 6 5 3 5 6 7 9 9 7 6 7 7 7 8 9
4 8 4 1 1 3 4 1 5 4 4 2 3 6 15 16 14 12 10 9 5 5 4 5 4 4 3 2 3 2 1 2 2 3 3 3 4 4 5 5 7 7 7 6 5 5 6 6 4
4 13 5 1 2 2 2 2 2 7 2 4 6 14 17 16 11 12 10 9 10 6 4 6 5 4 4 2 2 0 1 1 2 4 4 4 3 3 3 3 3 4 5 3 3 2 2 4 3
6 4 7 2 5 4 4 2 3 3 1 5 8 17 17 15 12 11 9 7 7 7 7 6 6 5 5 2 2 1 1 1 1 2 3 2 2 3 3 3 4 4 3 5 3 2 1 2 3
3 3 6 3 6 5 3 4 1 3 5 1 12 12 13 12 9 4 8 7 6 6 7 7 6 5 4 4 2 2 2 1 1 1 1 1 2 2 2 3 3 3 3 3 3 3 3 3 4
4 7 4 7 5 5 6 3 1 2 3 6 10 8 8 10 9 4 5 7 7 7 7 6 7 6 5 4 4 2 2 2 2 1 2 1 0 1 2 3 3 3 3 3 3 3 3 4 3
4 6 5 2 3 4 4 2 1 0 2 6 6 5 6 6 6 7 7 7 9 5 5 7 6 6 6 5 3 3 3 2 2 2 2 3 2 1 1 2 3 3 3 4 3 3 3 4 3
5 2 6 2 4 2 5 4 0 1 4 5 4 5 6 5 8 6 6 6 7 6 8 7 7 7 6 4 4 3 3 3 2 2 2 3 4 3 4 3 4 3 3 3 3 3 3 4 4
3 5 6 3 2 5 2 2 1 3 3 5 5 5 5 6 5 4 5 6 6 8 7 7 6 5 5 4 2 2 2 2 2 0 1 2 3 3 2 3 3 3 3 3 2 2 2 3 5
10 7 5 7 6 2 3 6 3 4 6 6 6 6 6 6 7 1 4 6 5 4 5 5 4 5 5 3 2 1 0 1 1 2 2 3 3 4 2 3 4 3 3 3 2 3 3 4 4
9 10 5 2 8 5 13 6 6 1 3 5 7 7 7 7 1 2 3 4 3 4 5 6 6 4 4 2 1 0 1 1 1 2 3 2 3 4 3 3 4 3 3 4 4 3 4 3 2
14 12 6 4 7 4 5 11 6 6 5 6 8 8 8 4 3 2 3 5 5 4 4 5 5 4 2 2 2 2 2 2 1 1 3 4 5 5 3 3 4 5 4 5 5 3 3 3 1
10 17 8 7 5 2 2 6 5 4 3 3 5 6 4 7 6 4 4 5 5 6 5 5 5 5 4 1 2 2 2 1 2 4 3 4 6 5 5 5 4 4 3 3 4 4 4 6 4
7 2 10 15 10 4 5 5 7 11 8 6 8 7 7 7 4 4 5 4 5 4 5 6 6 6 5 5 4 3 2 2 2 1 2 4 6 6 6 6 5 5 3 5 4 4 4 6 9
4 5 10 8 10 5 5 3 3 5 10 12 13 10 8 7 7 7 7 6 5 5 6 6 6 6 6 6 6 5 5 2 2 2 5 6 6 6 6 6 6 5 4 4 5 7 5 5 7
10 9 7 5 3 5 7 10 5 7 15 15 7 12 10 9 7 6 6 7 6 5 6 6 7 6 6 7 7 7 7 4 4 3 3 4 3 4 5 5 4 5 5 5 5 6 7 7 7
2 6 2 2 3 4 3 7 10 7 8 8 15 10 9 9 9 7 8 7 7 7 7 6 7 6 6 7 7 6 6 5 4 2 2 4 3 2 5 5 5 4 5 6 5 6 7 6 7
3 1 5 6 5 2 2 9 7 5 5 6 9 14 11 10 9 8 8 7 8 7 7 7 7 7 6 6 5 4 5 3 2 1 1 2 2 4 4 6 5 6 6 6 5 4 6 6 7
3 2 2 5 2 2 5 6 10 3 5 6 10 13 16 13 10 9 7 7 7 7 7 7 7 5 5 5 4 3 3 2 0 2 2 3 4 4 5 6 7 7 7 6 6 5 7 6 8
4 5 3 1 5 5 4 5 7 4 6 6 12 16 15 12 10 9 8 8 6 7 6 6 6 6 5 4 2 1 0 1 2 3 5 5 5 5 6 7 7 7 8 8 6 7 7 8 8
2 2 3 2 1 2 3 6 5 6 9 13 11 13 14 12 11 10 8 8 8 7 7 6 6 6 5 3 2 1 1 2 3 4 5 6 5 6 7 7 7 8 9 9 8 9 10 10 10
3 3 3 3 4 3 1 8 1 7 7 9 9 8 9 10 10 10 10 9 8 8 7 7 6 6 5 3 2 2 3 3 4 5 6 5 6 6 7 7 8 8 9 9 10 11 10 11 12
Wind_Direction
314 82 73 37 55 72 261 244 111 109 95 342 85 131 141 52 126 182 123 134 123 112 107 109 116 111 100 92 83 79 73 38 50 45 62 48 37 59 57 58 42 35 53 53 40 40 46 59 59
26 72 52 235 60 71 264 216 156 145 130 123 77 75 50 85 65 118 119 125 111 117 110 111 113 111 105 97 92 77 65 51 50 41 49 51 37 59 56 48 37 45 56 44 54 49 52 61 58
86 59 103 130 175 204 232 197 145 100 146 86 96 61 117 107 119 100 116 123 116 105 114 121 117 112 108 102 94 73 50 47 50 44 42 36 32 52 57 43 55 52 51 37 41 48 48 49 43
73 27 64 91 214 252 223 168 129 124 121 75 115 74 71 275 134 128 127 122 116 117 119 122 124 118 117 109 90 78 61 60 48 43 36 36 32 42 44 30 59 47 43 41 42 35 41 46 41
49 57 312 264 239 279 282 143 153 119 116 103 116 141 69 6 118 130 134 134 126 126 127 124 123 123 115 102 94 78 66 63 58 55 48 40 39 33 33 28 65 59 47 32 37 35 36 34 40
72 85 230 219 228 291 101 172 134 103 119 144 86 93 130 141 135 150 138 135 128 135 126 107 102 100 103 103 92 79 72 71 68 59 51 43 38 31 23 26 59 66 50 34 38 38 37 31 27
116 124 234 265 87 293 204 152 153 134 124 135 138 94 102 154 146 130 133 127 132 114 116 118 103 102 96 89 81 78 77 75 63 49 44 46 41 35 25 16 39 57 65 52 46 42 28 27 24
115 89 224 258 179 206 312 80 103 98 86 134 132 152 165 166 145 123 116 118 116 118 122 123 110 103 100 88 95 84 72 63 51 57 53 40 35 38 31 24 26 51 56 57 41 28 22 21 21
199 165 224 85 202 281 321 119 45 54 110 71 47 150 151 140 134 124 121 114 116 133 144 143 138 138 134 119 101 76 64 63 55 44 47 42 30 30 30 20 23 29 31 43 45 36 35 24 13
119 190 194 126 13 302 292 292 137 110 124 70 59 49 123 137 145 146 154 157 154 180 185 178 170 174 165 156 123 117 85 54 50 49 41 34 30 13 18 7 9 5 358 343 55 32 30 17 357
207 189 151 148 24 304 291 76 46 127 212 194 172 150 146 148 156 163 169 174 180 179 177 188 186 181 175 177 174 154 70 39 24 24 25 28 25 9 12 359 358 343 336 337 337 5 23 14 359
141 132 133 94 4 33 355 14 55 41 334 298 166 158 154 161 173 177 157 166 168 180 195 193 191 184 195 182 189 168 150 92 59 34 35 40 29 10 2 358 349 349 345 325 321 336 359 355 357
147 149 117 98 43 37 320 43 120 1 344 55 132 149 161 168 177 189 157 164 163 196 200 198 182 191 198 192 189 189 203 152 69 48 8 59 32 10 352 352 350 341 326 322 317 317 325 329 325
88 81 111 55 19 62 26 358 57 356 28 100 145 151 162 175 172 138 140 168 184 205 203 190 193 191 184 195 195 203 204 196 175 220 247 259 127 328 351 346 346 337 345 337 333 322 317 310 323
96 77 91 92 24 35 320 304 351 67 121 136 124 138 163 189 162 180 180 182 193 205 194 190 196 194 193 195 191 206 223 207 206 246 260 283 279 291 316 322 349 346 344 337 339 327 314 308 298
100 80 153 135 182 55 49 258 2 163 149 143 163 177 187 198 199 199 183 195 197 187 194 182 187 189 192 177 181 199 218 215 234 254 263 287 298 314 338 345 345 337 337 339 329 313 306 287 276
191 154 178 137 324 125 152 253 288 164 206 190 208 216 212 224 239 211 205 219 215 206 178 180 171 180 180 177 178 181 211 229 245 320 340 326 334 347 327 322 307 330 330 328 307 291 243 281 286
168 171 187 176 196 86 219 258 223 168 180 231 225 231 222 221 228 223 246 249 249 187 157 140 157 158 152 133 108 82 35 287 315 314 327 351 352 358 337 304 298 315 310 296 282 267 266 254 268
152 180 138 153 166 157 207 239 240 162 148 232 240 233 231 230 300 348 314 226 141 122 139 141 139 142 134 127 145 221 278 23 61 37 14 353 326 324 304 296 293 298 292 287 296 294 300 308 327
161 168 150 69 130 206 183 230 198 192 199 193 215 231 224 197 151 80 61 58 54 71 89 113 133 168 168 98 89 103 120 82 71 349 13 33 3 353 332 327 313 323 325 325 317 299 304 267 231
190 184 170 138 133 69 63 285 198 211 205 191 236 226 217 202 178 134 109 96 95 82 73 82 69 70 60 102 98 72 63 52 26 21 6 359 7 10 10 359 354 334 328 306 300 302 281 297 290
185 130 160 141 144 206 178 269 226 191 207 206 217 217 207 189 164 143 137 115 106 95 85 79 74 74 61 64 89 109 122 112 72 8 343 359 13 5 13 6 359 347 331 322 305 302 282 293 301
229 126 146 161 174 134 183 266 218 187 210 215 213 211 199 188 181 163 152 133 113 105 96 95 89 73 70 79 90 95 89 74 51 24 20 10 0 12 9 4 353 346 335 314 304 308 298 284 289
122 85 58 66 89 251 178 198 206 182 208 218 199 202 178 166 157 148 125 126 117 113 107 107 99 81 72 75 72 85 90 79 60 24 12 358 342 336 345 339 333 316 308 302 301 294 287 288 287
29 122 91 128 188 238 321 221 258 240 234 213 206 183 158 156 149 162 150 147 136 129 123 118 107 92 84 84 81 89 96 89 92 54 354 336 314 292 316 327 328 319 310 303 291 286 281 282 280
138 116 172 187 194 185 9 236 242 254 211 200 178 163 148 156 163 168 163 154 143 140 136 129 122 113 111 112 115 121 124 124 121 167 260 281 279 292 298 307 304 302 300 293 287 285 282 279 276
165 113 20 90 45 60 214 279 281 236 240 175 154 153 163 170 168 166 163 157 151 150 150 142 133 134 128 128 134 109 99 104 58 320 284 285 294 292 302 306 307 303 300 296 294 289 283 273 276
31 136 112 51 151 247 266 278 249 274 240 188 176 172 167 166 159 162 164 164 165 160 153 146 153 153 151 133 126 124 66 352 316 312 306 305 307 314 312 305 304 306 302 299 294 294 283 281 282
129 139 74 102 169 231 299 261 210 269 219 199 186 177 169 164 167 166 169 172 168 160 163 166 161 141 134 140 176 219 315 299 297 305 313 322 312 302 300 299 300 298 296 292 289 285 286 280 284
99 165 155 159 194 224 291 278 280 280 244 158 169 164 168 171 168 170 172 167 170 178 174 180 167 150 151 171 207 259 279 330 335 319 310 301 297 300 291 295 293 291 291 292 289 294 295 290 290